• In Netherlands
  • List of Countries
  • For 7 days
  • Water Temperature
  • Satellite Maps
  • Weather Map
  • Weather Widgets
  • user-avatar
    Login

    Hourly Weather Dangriga

    Today, 28 June, Wednesday

    Time Temperature Precipitation Wind Pressure Humidity
    00:00 +28°C° 0 mm 4 mps 759 mmHg 93%
    01:00 +28°C° 0.1 mm 4 mps 759 mmHg 92%
    02:00 +28°C° 0.1 mm 4 mps 758 mmHg 92%
    03:00 +28°C° 0.1 mm 4 mps 758 mmHg 91%
    04:00 +28°C° 0.5 mm 4 mps 758 mmHg 91%
    05:00 +28°C° 0.5 mm 4 mps 758 mmHg 91%
    06:00 +28°C° 0.5 mm 4 mps 758 mmHg 91%
    07:00 +29°C° 0.4 mm 4 mps 759 mmHg 84%
    08:00 +30°C° 0.4 mm 4 mps 759 mmHg 76%
    09:00 +33°C° 0.4 mm 4 mps 759 mmHg 69%
    10:00 +34°C° 0.3 mm 4 mps 759 mmHg 64%
    11:00 +35°C° 0.3 mm 4 mps 759 mmHg 60%
    12:00 +36°C° 0.3 mm 4 mps 759 mmHg 55%
    13:00 +35°C° 0 mm 4 mps 758 mmHg 56%
    14:00 +35°C° 0 mm 4 mps 758 mmHg 57%
    15:00 +35°C° 0 mm 5 mps 757 mmHg 58%
    16:00 +34°C° 0 mm 5 mps 757 mmHg 64%
    17:00 +33°C° 0 mm 5 mps 757 mmHg 71%
    18:00 +32°C° 0 mm 5 mps 757 mmHg 77%
    19:00 +30°C° 0.6 mm 5 mps 757 mmHg 80%
    20:00 +29°C° 0.6 mm 6 mps 758 mmHg 83%
    21:00 +29°C° 0.6 mm 6 mps 758 mmHg 86%
    22:00 +29°C° 1 mm 6 mps 758 mmHg 88%
    23:00 +28°C° 1 mm 7 mps 758 mmHg 90%

    Tomorrow, 29 June, Thursday

    Time Temperature Precipitation Wind Pressure Humidity
    00:00 +28°C° 1 mm 7 mps 758 mmHg 92%
    01:00 +28°C° 0.4 mm 7 mps 758 mmHg 92%
    02:00 +28°C° 0.4 mm 7 mps 758 mmHg 92%
    03:00 +28°C° 0.4 mm 7 mps 758 mmHg 92%
    04:00 +28°C° 0 mm 7 mps 758 mmHg 92%
    05:00 +29°C° 0 mm 7 mps 758 mmHg 91%
    06:00 +29°C° 0 mm 7 mps 758 mmHg 90%
    07:00 +30°C° 0 mm 7 mps 759 mmHg 82%
    08:00 +32°C° 0 mm 7 mps 759 mmHg 74%
    09:00 +33°C° 0 mm 7 mps 760 mmHg 66%
    10:00 +34°C° 0 mm 6 mps 760 mmHg 60%
    11:00 +35°C° 0 mm 6 mps 759 mmHg 54%
    12:00 +36°C° 0 mm 6 mps 759 mmHg 48%
    13:00 +36°C° 0 mm 6 mps 759 mmHg 48%
    14:00 +36°C° 0 mm 6 mps 758 mmHg 48%
    15:00 +35°C° 0 mm 6 mps 758 mmHg 49%
    16:00 +34°C° 0 mm 6 mps 758 mmHg 58%
    17:00 +33°C° 0 mm 6 mps 758 mmHg 67%
    18:00 +30°C° 0 mm 6 mps 758 mmHg 76%
    19:00 +30°C° 0 mm 6 mps 758 mmHg 79%
    20:00 +29°C° 0 mm 6 mps 759 mmHg 83%
    21:00 +29°C° 0 mm 6 mps 759 mmHg 86%
    22:00 +28°C° 0.1 mm 6 mps 759 mmHg 88%
    23:00 +28°C° 0.1 mm 6 mps 760 mmHg 91%

    Day after tomorrow, 30 June, Friday

    Time Temperature Precipitation Wind Pressure Humidity
    00:00 +28°C° 0.1 mm 6 mps 760 mmHg 93%
    01:00 +28°C° 0.3 mm 6 mps 759 mmHg 93%
    02:00 +28°C° 0.3 mm 6 mps 759 mmHg 94%
    03:00 +28°C° 0.3 mm 6 mps 758 mmHg 94%
    04:00 +28°C° 0.2 mm 6 mps 759 mmHg 94%
    05:00 +28°C° 0.2 mm 5 mps 759 mmHg 94%
    06:00 +28°C° 0.2 mm 5 mps 759 mmHg 94%
    07:00 +29°C° 0.2 mm 5 mps 759 mmHg 90%
    08:00 +30°C° 0.2 mm 5 mps 760 mmHg 86%
    09:00 +30°C° 0.2 mm 5 mps 760 mmHg 81%
    10:00 +33°C° 0.1 mm 5 mps 760 mmHg 73%
    11:00 +34°C° 0.1 mm 5 mps 760 mmHg 64%
    12:00 +35°C° 0.1 mm 5 mps 760 mmHg 56%
    13:00 +35°C° 0 mm 5 mps 759 mmHg 56%
    14:00 +35°C° 0 mm 5 mps 759 mmHg 55%
    15:00 +35°C° 0 mm 5 mps 758 mmHg 55%
    16:00 +34°C° 0 mm 5 mps 758 mmHg 62%
    17:00 +33°C° 0 mm 4 mps 758 mmHg 69%
    18:00 +30°C° 0 mm 4 mps 758 mmHg 75%
    19:00 +30°C° 0 mm 5 mps 759 mmHg 80%
    20:00 +29°C° 0 mm 5 mps 759 mmHg 85%
    21:00 +28°C° 0 mm 5 mps 760 mmHg 89%
    22:00 +28°C° 0.1 mm 5 mps 760 mmHg 90%
    23:00 +28°C° 0.1 mm 5 mps 760 mmHg 92%

    1 July, Saturday

    Time Temperature Precipitation Wind Pressure Humidity
    00:00 +28°C° 0.1 mm 5 mps 760 mmHg 93%
    01:00 +28°C° 0.1 mm 4 mps 759 mmHg 92%
    02:00 +28°C° 0.1 mm 4 mps 759 mmHg 92%
    03:00 +28°C° 0.1 mm 4 mps 758 mmHg 91%
    04:00 +28°C° 0.8 mm 5 mps 759 mmHg 91%
    05:00 +28°C° 0.8 mm 5 mps 759 mmHg 92%
    06:00 +28°C° 0.8 mm 5 mps 759 mmHg 92%
    07:00 +28°C° 2.8 mm 5 mps 760 mmHg 92%
    08:00 +28°C° 2.8 mm 5 mps 760 mmHg 93%
    09:00 +29°C° 2.8 mm 5 mps 760 mmHg 93%
    10:00 +29°C° 3.1 mm 5 mps 760 mmHg 92%
    11:00 +30°C° 3.1 mm 5 mps 760 mmHg 91%
    12:00 +30°C° 3.1 mm 5 mps 760 mmHg 90%
    13:00 +30°C° 2.6 mm 5 mps 759 mmHg 87%
    14:00 +30°C° 2.6 mm 5 mps 759 mmHg 85%
    15:00 +30°C° 2.6 mm 5 mps 759 mmHg 82%
    16:00 +30°C° 1.9 mm 5 mps 759 mmHg 85%
    17:00 +29°C° 1.9 mm 5 mps 759 mmHg 87%
    18:00 +28°C° 1.9 mm 5 mps 759 mmHg 89%
    19:00 +28°C° 2 mm 5 mps 759 mmHg 90%
    20:00 +28°C° 2 mm 5 mps 760 mmHg 92%
    21:00 +27°C° 2 mm 5 mps 760 mmHg 94%
    22:00 +27°C° 2.1 mm 5 mps 760 mmHg 94%
    23:00 +27°C° 2.1 mm 5 mps 760 mmHg 94%

    2 July, Sunday

    Time Temperature Precipitation Wind Pressure Humidity
    00:00 +27°C° 2.1 mm 5 mps 760 mmHg 95%
    01:00 +27°C° 2.1 mm 5 mps 760 mmHg 95%
    02:00 +27°C° 2.1 mm 5 mps 759 mmHg 95%
    03:00 +27°C° 2.1 mm 5 mps 759 mmHg 96%
    04:00 +27°C° 2.8 mm 5 mps 759 mmHg 95%
    05:00 +27°C° 2.8 mm 5 mps 760 mmHg 94%
    06:00 +27°C° 2.8 mm 5 mps 760 mmHg 93%
    07:00 +28°C° 1.6 mm 5 mps 760 mmHg 93%
    08:00 +28°C° 1.6 mm 5 mps 761 mmHg 92%
    09:00 +29°C° 1.6 mm 5 mps 761 mmHg 91%
    10:00 +30°C° 0.6 mm 5 mps 761 mmHg 88%
    11:00 +30°C° 0.6 mm 5 mps 760 mmHg 85%
    12:00 +32°C° 0.6 mm 5 mps 760 mmHg 81%
    13:00 +32°C° 0.3 mm 5 mps 760 mmHg 79%
    14:00 +32°C° 0.3 mm 5 mps 759 mmHg 77%
    15:00 +33°C° 0.3 mm 5 mps 759 mmHg 75%
    16:00 +32°C° 0.1 mm 5 mps 759 mmHg 79%
    17:00 +30°C° 0.1 mm 5 mps 759 mmHg 82%
    18:00 +29°C° 0.1 mm 5 mps 759 mmHg 86%
    19:00 +29°C° 0.1 mm 5 mps 760 mmHg 89%
    20:00 +28°C° 0.1 mm 5 mps 760 mmHg 92%
    21:00 +28°C° 0.1 mm 5 mps 761 mmHg 95%
    22:00 +28°C° 0 mm 5 mps 761 mmHg 95%
    23:00 +28°C° 0 mm 5 mps 760 mmHg 94%

    3 July, Monday

    Time Temperature Precipitation Wind Pressure Humidity
    00:00 +28°C° 0 mm 5 mps 760 mmHg 94%
    01:00 +28°C° 0 mm 5 mps 760 mmHg 94%
    02:00 +28°C° 0 mm 5 mps 759 mmHg 93%
    03:00 +28°C° 0 mm 5 mps 759 mmHg 93%
    04:00 +28°C° 0.5 mm 5 mps 759 mmHg 93%
    05:00 +27°C° 0.5 mm 5 mps 760 mmHg 94%
    06:00 +27°C° 0.5 mm 5 mps 760 mmHg 94%
    07:00 +28°C° 0.6 mm 5 mps 760 mmHg 92%
    08:00 +29°C° 0.6 mm 5 mps 760 mmHg 90%
    09:00 +29°C° 0.6 mm 4 mps 760 mmHg 88%
    10:00 +32°C° 0.7 mm 4 mps 760 mmHg 80%
    11:00 +33°C° 0.7 mm 4 mps 760 mmHg 71%
    12:00 +34°C° 0.7 mm 4 mps 760 mmHg 63%
    13:00 +34°C° 0.3 mm 4 mps 759 mmHg 62%
    14:00 +34°C° 0.3 mm 4 mps 759 mmHg 60%
    15:00 +34°C° 0.3 mm 4 mps 758 mmHg 59%
    16:00 +33°C° 0.2 mm 4 mps 758 mmHg 66%
    17:00 +32°C° 0.2 mm 4 mps 759 mmHg 72%
    18:00 +30°C° 0.2 mm 5 mps 759 mmHg 79%
    19:00 +29°C° 0.1 mm 5 mps 759 mmHg 84%
    20:00 +28°C° 0.1 mm 5 mps 760 mmHg 88%
    21:00 +27°C° 0.1 mm 5 mps 760 mmHg 93%
    22:00 +27°C° 0.2 mm 4 mps 760 mmHg 94%
    23:00 +27°C° 0.2 mm 4 mps 760 mmHg 96%
    Show more